| time (UTC) | temp F | wind direction | speed MPH | gust MPH | rain 1hr in | rain 24hr in | rain mn in | humidity % | barometer mb |
| 20260510054809 | 53 | 0 | 11.0 | 14.0 | 0.00 | 0.00 | 0.00 | 84 | 1015.5 |
| 20260510054305 | 53 | 0 | 9.0 | 16.0 | 0.00 | 0.00 | 0.00 | 85 | 1015.5 |
| 20260510053809 | 53 | 0 | 10.0 | 18.0 | 0.00 | 0.00 | 0.00 | 86 | 1015.3 |
| 20260510053305 | 53 | 0 | 11.0 | 18.0 | 0.00 | 0.00 | 0.00 | 86 | 1015.3 |
| 20260510052808 | 52 | 10 | 9.0 | 17.0 | 0.00 | 0.00 | 0.00 | 87 | 1015.3 |
| 20260510052306 | 52 | 0 | 9.0 | 16.0 | 0.00 | 0.00 | 0.00 | 87 | 1015.4 |
| 20260510051306 | 52 | 6 | 10.0 | 16.0 | 0.00 | 0.00 | 0.00 | 87 | 1015.3 |
| 20260510050821 | 51 | 0 | 10.0 | 15.0 | 0.00 | 0.00 | 0.00 | 87 | 1015.2 |
| 20260510050305 | 51 | 0 | 8.0 | 14.0 | 0.00 | 0.00 | 0.00 | 87 | 1015.3 |
| 20260510045809 | 51 | 0 | 8.0 | 12.0 | 0.00 | 0.00 | 0.00 | 87 | 1015.4 |
| 20260510045307 | 51 | 0 | 8.0 | 12.0 | 0.00 | 0.00 | 0.00 | 87 | 1015.5 |
| 20260510044808 | 51 | 0 | 8.0 | 12.0 | 0.00 | 0.00 | 0.00 | 87 | 1015.5 |
| 20260510044307 | 51 | 7 | 7.0 | 12.0 | 0.00 | 0.00 | 0.00 | 87 | 1015.5 |
| 20260510043305 | 51 | 3 | 7.0 | 13.0 | 0.00 | 0.00 | 0.00 | 87 | 1015.5 |
| 20260510042808 | 51 | 0 | 6.0 | 13.0 | 0.00 | 0.00 | 0.00 | 87 | 1015.4 |
| 20260510042307 | 51 | 10 | 8.0 | 13.0 | 0.00 | 0.00 | 0.00 | 87 | 1015.4 |
| 20260510041809 | 51 | 0 | 9.0 | 13.0 | 0.00 | 0.00 | 0.00 | 87 | 1015.4 |
| 20260510041305 | 51 | 0 | 7.0 | 12.0 | 0.00 | 0.00 | 0.00 | 87 | 1015.3 |
| 20260510040308 | 51 | 4 | 7.0 | 12.0 | 0.00 | 0.00 | 0.00 | 87 | 1015.2 |
| 20260510035809 | 51 | 0 | 8.0 | 12.0 | 0.00 | 0.00 | 0.00 | 87 | 1015.2 |
| 20260510035306 | 51 | 0 | 6.0 | 12.0 | 0.00 | 0.00 | 0.00 | 87 | 1015.2 |
| 20260510034809 | 51 | 0 | 7.0 | 12.0 | 0.00 | 0.00 | 0.00 | 87 | 1015.1 |
| 20260510034307 | 51 | 4 | 9.0 | 12.0 | 0.00 | 0.00 | 0.00 | 87 | 1015.2 |
| 20260510033809 | 51 | 3 | 8.0 | 13.0 | 0.00 | 0.00 | 0.00 | 87 | 1015.2 |
| 20260510033306 | 51 | 0 | 8.0 | 13.0 | 0.00 | 0.00 | 0.00 | 87 | 1015.3 |
| 20260510032306 | 51 | 0 | 7.0 | 13.0 | 0.00 | 0.00 | 0.00 | 87 | 1015.2 |
| 20260510031808 | 51 | 0 | 9.0 | 12.0 | 0.00 | 0.00 | 0.00 | 87 | 1015.4 |
| 20260510030811 | 51 | 0 | 7.0 | 10.0 | 0.00 | 0.00 | 0.00 | 87 | 1015.5 |
| 20260510030305 | 51 | 0 | 7.0 | 11.0 | 0.00 | 0.00 | 0.00 | 87 | 1015.5 |
| 20260510025810 | 51 | 0 | 6.0 | 12.0 | 0.00 | 0.00 | 0.00 | 87 | 1015.4 |
| 20260510025306 | 51 | 0 | 7.0 | 12.0 | 0.00 | 0.00 | 0.00 | 87 | 1015.4 |
| 20260510024818 | 51 | 11 | 7.0 | 11.0 | 0.00 | 0.00 | 0.00 | 87 | 1015.5 |
| 20260510024305 | 51 | 4 | 6.0 | 11.0 | 0.00 | 0.00 | 0.00 | 86 | 1015.5 |
| 20260510023809 | 51 | 0 | 6.0 | 13.0 | 0.00 | 0.00 | 0.00 | 86 | 1015.6 |
| 20260510023305 | 51 | 0 | 7.0 | 13.0 | 0.00 | 0.00 | 0.00 | 86 | 1015.5 |
| 20260510022809 | 52 | 1 | 7.0 | 13.0 | 0.00 | 0.00 | 0.00 | 86 | 1015.5 |
| 20260510022307 | 52 | 3 | 7.0 | 13.0 | 0.00 | 0.00 | 0.00 | 86 | 1015.5 |
| 20260510021809 | 52 | 14 | 8.0 | 11.0 | 0.00 | 0.00 | 0.00 | 86 | 1015.6 |
| 20260510021305 | 51 | 0 | 6.0 | 11.0 | 0.00 | 0.00 | 0.00 | 86 | 1015.6 |
| 20260510020309 | 52 | 0 | 7.0 | 12.0 | 0.00 | 0.00 | 0.00 | 86 | 1015.7 |
| 20260510015809 | 52 | 0 | 7.0 | 13.0 | 0.00 | 0.00 | 0.00 | 86 | 1015.6 |
| 20260510015307 | 51 | 0 | 8.0 | 13.0 | 0.00 | 0.00 | 0.00 | 86 | 1015.6 |
| 20260510014305 | 51 | 0 | 7.0 | 12.0 | 0.00 | 0.00 | 0.00 | 86 | 1015.7 |
| 20260510013305 | 51 | 0 | 7.0 | 12.0 | 0.00 | 0.00 | 0.00 | 85 | 1015.7 |
| 20260510012307 | 51 | 0 | 7.0 | 11.0 | 0.00 | 0.00 | 0.00 | 85 | 1015.8 |
| 20260510011809 | 51 | 0 | 7.0 | 11.0 | 0.00 | 0.00 | 0.00 | 85 | 1015.8 |
| 20260510011307 | 51 | 0 | 6.0 | 9.0 | 0.00 | 0.00 | 0.00 | 84 | 1015.8 |
| 20260510010809 | 51 | 0 | 5.0 | 7.0 | 0.00 | 0.00 | 0.00 | 84 | 1015.9 |
| 20260510010305 | 52 | 0 | 6.0 | 7.0 | 0.00 | 0.00 | 0.00 | 84 | 1015.9 |
| 20260510005809 | 52 | 0 | 5.0 | 9.0 | 0.00 | 0.00 | 0.00 | 84 | 1015.9 |
| 20260510005306 | 52 | 0 | 6.0 | 9.0 | 0.00 | 0.00 | 0.00 | 83 | 1015.9 |
| 20260510004809 | 52 | 17 | 6.0 | 9.0 | 0.00 | 0.00 | 0.00 | 83 | 1015.9 |
| 20260510004305 | 52 | 0 | 6.0 | 11.0 | 0.00 | 0.00 | 0.00 | 83 | 1016.0 |
| 20260510003307 | 52 | 0 | 6.0 | 9.0 | 0.00 | 0.00 | 0.00 | 82 | 1016.2 |
| 20260510002307 | 52 | 4 | 5.0 | 10.0 | 0.00 | 0.00 | 0.00 | 82 | 1016.4 |
| 20260510001808 | 52 | 0 | 5.0 | 10.0 | 0.00 | 0.00 | 0.00 | 82 | 1016.3 |
| 20260510000305 | 52 | 0 | 6.0 | 9.0 | 0.00 | 0.00 | 0.00 | 81 | 1016.4 |
| 20260509235809 | 52 | 10 | 6.0 | 9.0 | 0.00 | 0.00 | 0.00 | 81 | 1016.4 |
| 20260509235307 | 52 | 0 | 6.0 | 10.0 | 0.00 | 0.00 | 0.00 | 81 | 1016.3 |
| 20260509234808 | 52 | 0 | 6.0 | 10.0 | 0.00 | 0.00 | 0.00 | 81 | 1016.3 |
| 20260509234310 | 52 | 11 | 6.0 | 11.0 | 0.00 | 0.00 | 0.00 | 81 | 1016.4 |
| 20260509233809 | 53 | 0 | 7.0 | 11.0 | 0.00 | 0.00 | 0.00 | 80 | 1016.5 |
| 20260509233307 | 53 | 0 | 7.0 | 11.0 | 0.00 | 0.00 | 0.00 | 80 | 1016.5 |
| 20260509232808 | 53 | 3 | 6.0 | 11.0 | 0.00 | 0.00 | 0.00 | 79 | 1016.4 |
| 20260509231808 | 53 | 1 | 7.0 | 11.0 | 0.00 | 0.00 | 0.00 | 79 | 1016.5 |
| 20260509231307 | 53 | 3 | 8.0 | 12.0 | 0.00 | 0.00 | 0.00 | 79 | 1016.6 |
| 20260509230809 | 53 | 0 | 8.0 | 12.0 | 0.00 | 0.00 | 0.00 | 78 | 1016.6 |
| 20260509230305 | 53 | 8 | 9.0 | 12.0 | 0.00 | 0.00 | 0.00 | 78 | 1016.5 |
| 20260509224808 | 53 | 4 | 7.0 | 11.0 | 0.00 | 0.00 | 0.00 | 77 | 1016.6 |
| 20260509223809 | 53 | 0 | 7.0 | 12.0 | 0.00 | 0.00 | 0.00 | 77 | 1016.6 |
| 20260509222810 | 54 | 0 | 8.0 | 11.0 | 0.00 | 0.00 | 0.00 | 77 | 1016.6 |
| 20260509222307 | 54 | 0 | 8.0 | 11.0 | 0.00 | 0.00 | 0.00 | 76 | 1016.6 |
| 20260509221809 | 54 | 0 | 8.0 | 12.0 | 0.00 | 0.00 | 0.00 | 76 | 1016.5 |
| 20260509220809 | 54 | 0 | 8.0 | 13.0 | 0.00 | 0.00 | 0.00 | 76 | 1016.5 |
| 20260509220305 | 54 | 16 | 7.0 | 12.0 | 0.00 | 0.00 | 0.00 | 76 | 1016.5 |
| 20260509215808 | 54 | 8 | 7.0 | 12.0 | 0.00 | 0.00 | 0.00 | 75 | 1016.4 |
| 20260509215306 | 54 | 0 | 8.0 | 12.0 | 0.00 | 0.00 | 0.00 | 75 | 1016.4 |
| 20260509214808 | 54 | 0 | 7.0 | 12.0 | 0.00 | 0.00 | 0.00 | 74 | 1016.5 |
| 20260509214306 | 54 | 11 | 8.0 | 11.0 | 0.00 | 0.00 | 0.00 | 74 | 1016.5 |
| 20260509213807 | 54 | 0 | 7.0 | 11.0 | 0.00 | 0.00 | 0.00 | 74 | 1016.5 |
| 20260509213305 | 55 | 0 | 7.0 | 11.0 | 0.00 | 0.00 | 0.00 | 73 | 1016.6 |
| 20260509212807 | 55 | 3 | 7.0 | 11.0 | 0.00 | 0.00 | 0.00 | 73 | 1016.6 |
| 20260509212306 | 55 | 6 | 8.0 | 13.0 | 0.00 | 0.00 | 0.00 | 72 | 1016.5 |
| 20260509211810 | 55 | 3 | 7.0 | 13.0 | 0.00 | 0.00 | 0.00 | 72 | 1016.5 |
| 20260509211306 | 55 | 0 | 7.0 | 12.0 | 0.00 | 0.00 | 0.00 | 71 | 1016.5 |
| 20260509205810 | 55 | 0 | 8.0 | 11.0 | 0.00 | 0.00 | 0.00 | 69 | 1016.4 |
| 20260509205307 | 55 | 0 | 6.0 | 10.0 | 0.00 | 0.00 | 0.00 | 69 | 1016.4 |
| 20260509204310 | 55 | 0 | 6.0 | 11.0 | 0.00 | 0.00 | 0.00 | 68 | 1016.4 |
| 20260509203809 | 56 | 4 | 5.0 | 10.0 | 0.00 | 0.00 | 0.00 | 67 | 1016.5 |
| 20260509203305 | 56 | 11 | 5.0 | 11.0 | 0.00 | 0.00 | 0.00 | 66 | 1016.3 |
| 20260509202812 | 56 | 6 | 7.0 | 11.0 | 0.00 | 0.00 | 0.00 | 66 | 1016.2 |
| 20260509202307 | 56 | 0 | 7.0 | 13.0 | 0.00 | 0.00 | 0.00 | 66 | 1016.4 |
| 20260509201807 | 56 | 0 | 7.0 | 13.0 | 0.00 | 0.00 | 0.00 | 65 | 1016.4 |
| 20260509201304 | 56 | 0 | 6.0 | 12.0 | 0.00 | 0.00 | 0.00 | 65 | 1016.3 |
| 20260509200808 | 57 | 6 | 6.0 | 11.0 | 0.00 | 0.00 | 0.00 | 65 | 1016.3 |
| 20260509200305 | 57 | 0 | 7.0 | 12.0 | 0.00 | 0.00 | 0.00 | 65 | 1016.3 |
| 20260509195811 | 57 | 0 | 9.0 | 12.0 | 0.00 | 0.00 | 0.00 | 65 | 1016.2 |
| 20260509195306 | 57 | 0 | 7.0 | 11.0 | 0.00 | 0.00 | 0.00 | 65 | 1016.3 |
| 20260509194811 | 57 | 0 | 6.0 | 10.0 | 0.00 | 0.00 | 0.00 | 64 | 1016.2 |
| 20260509194304 | 57 | 0 | 6.0 | 11.0 | 0.00 | 0.00 | 0.00 | 64 | 1016.2 |
| 20260509193809 | 58 | 0 | 7.0 | 12.0 | 0.00 | 0.00 | 0.00 | 64 | 1016.1 |
| 20260509193307 | 58 | 0 | 8.0 | 12.0 | 0.00 | 0.00 | 0.00 | 63 | 1016.1 |
| 20260509192306 | 58 | 3 | 8.0 | 13.0 | 0.00 | 0.00 | 0.00 | 63 | 1016.1 |
| 20260509191808 | 58 | 0 | 6.0 | 13.0 | 0.00 | 0.00 | 0.00 | 62 | 1016.1 |
| 20260509191305 | 59 | 0 | 7.0 | 13.0 | 0.00 | 0.00 | 0.00 | 62 | 1016.0 |
| 20260509190809 | 59 | 1 | 8.0 | 13.0 | 0.00 | 0.00 | 0.00 | 61 | 1015.9 |
| 20260509190306 | 59 | 0 | 8.0 | 15.0 | 0.00 | 0.00 | 0.00 | 60 | 1016.1 |
| 20260509185807 | 60 | 18 | 9.0 | 15.0 | 0.00 | 0.00 | 0.00 | 58 | 1015.9 |
| 20260509185306 | 60 | 6 | 9.0 | 15.0 | 0.00 | 0.00 | 0.00 | 57 | 1016.0 |
| 20260509184807 | 60 | 1 | 10.0 | 15.0 | 0.00 | 0.00 | 0.00 | 57 | 1016.0 |
| 20260509183807 | 61 | 0 | 9.0 | 15.0 | 0.00 | 0.00 | 0.00 | 58 | 1016.0 |
| 20260509183304 | 62 | 4 | 9.0 | 17.0 | 0.00 | 0.00 | 0.00 | 57 | 1016.0 |
| 20260509182807 | 62 | 0 | 11.0 | 17.0 | 0.00 | 0.00 | 0.00 | 56 | 1015.9 |
| 20260509182306 | 62 | 0 | 9.0 | 14.0 | 0.00 | 0.00 | 0.00 | 57 | 1015.9 |
| 20260509181812 | 63 | 0 | 9.0 | 14.0 | 0.00 | 0.00 | 0.00 | 57 | 1015.9 |
| 20260509181305 | 63 | 0 | 9.0 | 15.0 | 0.00 | 0.00 | 0.00 | 56 | 1015.8 |
| 20260509180808 | 63 | 0 | 9.0 | 15.0 | 0.00 | 0.00 | 0.00 | 56 | 1016.0 |
| 20260509180304 | 64 | 7 | 11.0 | 16.0 | 0.00 | 0.00 | 0.00 | 55 | 1015.9 |
| 20260509175807 | 64 | 1 | 9.0 | 18.0 | 0.00 | 0.00 | 0.00 | 56 | 1016.0 |
| 20260509175307 | 64 | 4 | 11.0 | 18.0 | 0.00 | 0.00 | 0.00 | 55 | 1015.9 |
| 20260509174809 | 65 | 0 | 8.0 | 17.0 | 0.00 | 0.00 | 0.00 | 56 | 1015.9 |
| 20260509174304 | 65 | 0 | 11.0 | 16.0 | 0.00 | 0.00 | 0.00 | 56 | 1015.9 |
| 20260509173809 | 65 | 4 | 9.0 | 16.0 | 0.00 | 0.00 | 0.00 | 56 | 1015.9 |
| 20260509172808 | 66 | 0 | 10.0 | 18.0 | 0.00 | 0.00 | 0.00 | 55 | 1015.8 |
| 20260509172307 | 66 | 0 | 12.0 | 18.0 | 0.00 | 0.00 | 0.00 | 55 | 1015.7 |
| 20260509171807 | 66 | 0 | 11.0 | 17.0 | 0.00 | 0.00 | 0.00 | 55 | 1015.7 |
| 20260509171305 | 66 | 4 | 12.0 | 18.0 | 0.00 | 0.00 | 0.00 | 54 | 1015.6 |
| 20260509170808 | 67 | 0 | 14.0 | 18.0 | 0.00 | 0.00 | 0.00 | 54 | 1015.6 |
| 20260509170306 | 67 | 0 | 13.0 | 19.0 | 0.00 | 0.00 | 0.00 | 54 | 1015.5 |
| 20260509165809 | 67 | 4 | 12.0 | 20.0 | 0.00 | 0.00 | 0.00 | 54 | 1015.5 |
| 20260509165307 | 67 | 0 | 13.0 | 21.0 | 0.00 | 0.00 | 0.00 | 53 | 1015.6 |
| 20260509164809 | 67 | 0 | 13.0 | 21.0 | 0.00 | 0.00 | 0.00 | 53 | 1015.7 |
| 20260509163808 | 68 | 20 | 11.0 | 18.0 | 0.00 | 0.00 | 0.00 | 52 | 1015.6 |
| 20260509163304 | 68 | 13 | 8.0 | 18.0 | 0.00 | 0.00 | 0.00 | 54 | 1015.6 |
| 20260509162307 | 68 | 0 | 13.0 | 20.0 | 0.00 | 0.00 | 0.00 | 53 | 1015.7 |
| 20260509161810 | 68 | 16 | 12.0 | 20.0 | 0.00 | 0.00 | 0.00 | 53 | 1015.7 |
| 20260509161305 | 68 | 0 | 12.0 | 19.0 | 0.00 | 0.00 | 0.00 | 53 | 1015.7 |
| 20260509155808 | 69 | 0 | 10.0 | 17.0 | 0.00 | 0.00 | 0.00 | 53 | 1015.8 |
| 20260509155306 | 69 | 0 | 11.0 | 18.0 | 0.00 | 0.00 | 0.00 | 53 | 1015.6 |
| 20260509154810 | 69 | 0 | 11.0 | 18.0 | 0.00 | 0.00 | 0.00 | 53 | 1015.6 |
| 20260509154309 | 69 | 1 | 11.0 | 18.0 | 0.00 | 0.00 | 0.00 | 53 | 1015.7 |
| 20260509153811 | 69 | 17 | 13.0 | 18.0 | 0.00 | 0.00 | 0.00 | 53 | 1015.7 |
| 20260509153304 | 70 | 0 | 11.0 | 16.0 | 0.00 | 0.00 | 0.00 | 51 | 1015.7 |
| 20260509152307 | 71 | 4 | 11.0 | 16.0 | 0.00 | 0.00 | 0.00 | 48 | 1015.6 |
| 20260509151808 | 70 | 0 | 6.0 | 15.0 | 0.00 | 0.00 | 0.00 | 50 | 1015.6 |
| 20260509151306 | 70 | 0 | 10.0 | 15.0 | 0.00 | 0.00 | 0.00 | 48 | 1015.6 |
| 20260509150808 | 71 | 13 | 6.0 | 13.0 | 0.00 | 0.00 | 0.00 | 49 | 1015.5 |
| 20260509150304 | 71 | 0 | 6.0 | 14.0 | 0.00 | 0.00 | 0.00 | 49 | 1015.5 |
| 20260509145809 | 70 | 0 | 9.0 | 14.0 | 0.00 | 0.00 | 0.00 | 49 | 1015.5 |
| 20260509145306 | 70 | 0 | 8.0 | 11.0 | 0.00 | 0.00 | 0.00 | 50 | 1015.5 |
| 20260509144809 | 70 | 0 | 8.0 | 11.0 | 0.00 | 0.00 | 0.00 | 49 | 1015.6 |
| 20260509144305 | 71 | 17 | 6.0 | 13.0 | 0.00 | 0.00 | 0.00 | 48 | 1015.7 |
| 20260509143808 | 71 | 6 | 8.0 | 13.0 | 0.00 | 0.00 | 0.00 | 48 | 1015.7 |
| 20260509143306 | 71 | 0 | 4.0 | 6.0 | 0.00 | 0.00 | 0.00 | 49 | 1015.8 |
| 20260509142307 | 70 | 14 | 4.0 | 14.0 | 0.00 | 0.00 | 0.00 | 51 | 1015.7 |
| 20260509141306 | 70 | 0 | 9.0 | 14.0 | 0.00 | 0.00 | 0.00 | 49 | 1015.8 |
| 20260509140810 | 71 | 0 | 8.0 | 12.0 | 0.00 | 0.00 | 0.00 | 47 | 1015.9 |
| 20260509140306 | 71 | 3 | 6.0 | 12.0 | 0.00 | 0.00 | 0.00 | 47 | 1015.9 |
| 20260509135808 | 72 | 16 | 9.0 | 14.0 | 0.00 | 0.00 | 0.00 | 47 | 1015.9 |
| 20260509135307 | 72 | 0 | 9.0 | 15.0 | 0.00 | 0.00 | 0.00 | 48 | 1016.0 |
| 20260509134305 | 71 | 24 | 8.0 | 12.0 | 0.00 | 0.00 | 0.00 | 49 | 1016.0 |
| 20260509133809 | 71 | 0 | 6.0 | 14.0 | 0.00 | 0.00 | 0.00 | 49 | 1016.1 |
| 20260509132810 | 70 | 0 | 10.0 | 14.0 | 0.00 | 0.00 | 0.00 | 50 | 1016.1 |
| 20260509132306 | 71 | 4 | 6.0 | 16.0 | 0.00 | 0.00 | 0.00 | 48 | 1016.2 |
| 20260509131808 | 71 | 0 | 11.0 | 16.0 | 0.00 | 0.00 | 0.00 | 47 | 1016.1 |
| 20260509131305 | 72 | 0 | 8.0 | 15.0 | 0.00 | 0.00 | 0.00 | 48 | 1016.1 |
| 20260509130810 | 72 | 27 | 9.0 | 14.0 | 0.00 | 0.00 | 0.00 | 49 | 1016.2 |
| 20260509125809 | 71 | 0 | 10.0 | 16.0 | 0.00 | 0.00 | 0.00 | 50 | 1016.3 |
| 20260509125308 | 70 | 0 | 4.0 | 13.0 | 0.00 | 0.00 | 0.00 | 51 | 1016.4 |
| 20260509124808 | 69 | 4 | 8.0 | 13.0 | 0.00 | 0.00 | 0.00 | 52 | 1016.5 |
| 20260509124306 | 68 | 0 | 4.0 | 10.0 | 0.00 | 0.00 | 0.00 | 51 | 1016.5 |
| 20260509123810 | 69 | 16 | 6.0 | 13.0 | 0.00 | 0.00 | 0.00 | 50 | 1016.6 |
| 20260509123307 | 69 | 0 | 8.0 | 13.0 | 0.00 | 0.00 | 0.00 | 48 | 1016.6 |
| 20260509122809 | 70 | 0 | 7.0 | 13.0 | 0.00 | 0.00 | 0.00 | 50 | 1016.6 |
| 20260509121807 | 71 | 25 | 9.0 | 18.0 | 0.00 | 0.00 | 0.00 | 48 | 1016.7 |
| 20260509121305 | 70 | 0 | 4.0 | 10.0 | 0.00 | 0.00 | 0.00 | 51 | 1016.8 |
| 20260509120809 | 70 | 0 | 3.0 | 9.0 | 0.00 | 0.00 | 0.00 | 50 | 1016.8 |
| 20260509120304 | 70 | 0 | 5.0 | 10.0 | 0.00 | 0.00 | 0.00 | 48 | 1016.9 |
| 20260509115808 | 71 | 0 | 4.0 | 12.0 | 0.00 | 0.00 | 0.00 | 48 | 1016.9 |
| 20260509115307 | 71 | 7 | 6.0 | 12.0 | 0.00 | 0.00 | 0.00 | 50 | 1017.0 |
| 20260509114811 | 71 | 25 | 9.0 | 12.0 | 0.00 | 0.00 | 0.00 | 50 | 1017.0 |
| 20260509113808 | 70 | 0 | 6.0 | 12.0 | 0.00 | 0.00 | 0.00 | 48 | 1017.3 |
| 20260509113306 | 71 | 21 | 3.0 | 12.0 | 0.00 | 0.00 | 0.00 | 47 | 1017.2 |
| 20260509112809 | 71 | 0 | 6.0 | 10.0 | 0.00 | 0.00 | 0.00 | 52 | 1017.3 |
| 20260509112307 | 70 | 0 | 4.0 | 11.0 | 0.00 | 0.00 | 0.00 | 48 | 1017.3 |
| 20260509111808 | 71 | 0 | 6.0 | 14.0 | 0.00 | 0.00 | 0.00 | 49 | 1017.4 |
| 20260509111305 | 71 | 0 | 6.0 | 14.0 | 0.00 | 0.00 | 0.00 | 50 | 1017.5 |
| 20260509110809 | 71 | 0 | 5.0 | 11.0 | 0.00 | 0.00 | 0.00 | 50 | 1017.4 |
| 20260509110318 | 70 | 0 | 5.0 | 14.0 | 0.00 | 0.00 | 0.00 | 49 | 1017.4 |
| 20260509105806 | 71 | 0 | 7.0 | 14.0 | 0.00 | 0.00 | 0.00 | 49 | 1017.6 |
| 20260509105306 | 71 | 0 | 6.0 | 13.0 | 0.00 | 0.00 | 0.00 | 51 | 1017.5 |
| 20260509103809 | 70 | 0 | 6.0 | 13.0 | 0.00 | 0.00 | 0.00 | 51 | 1017.6 |
| 20260509103305 | 70 | 0 | 7.0 | 13.0 | 0.00 | 0.00 | 0.00 | 50 | 1017.7 |
| 20260509102808 | 70 | 17 | 6.0 | 12.0 | 0.00 | 0.00 | 0.00 | 50 | 1017.7 |
| 20260509102306 | 70 | 0 | 8.0 | 13.0 | 0.00 | 0.00 | 0.00 | 52 | 1017.7 |
| 20260509101807 | 69 | 1 | 5.0 | 13.0 | 0.00 | 0.00 | 0.00 | 52 | 1017.8 |
| 20260509101304 | 69 | 25 | 7.0 | 13.0 | 0.00 | 0.00 | 0.00 | 50 | 1017.8 |
| 20260509100809 | 69 | 20 | 8.0 | 13.0 | 0.00 | 0.00 | 0.00 | 51 | 1017.9 |
| 20260509100305 | 70 | 20 | 8.0 | 11.0 | 0.00 | 0.00 | 0.00 | 50 | 1017.8 |
| 20260509095808 | 69 | 18 | 6.0 | 11.0 | 0.00 | 0.00 | 0.00 | 53 | 1017.9 |
| 20260509094808 | 69 | 0 | 8.0 | 13.0 | 0.00 | 0.00 | 0.00 | 49 | 1018.0 |
| 20260509094304 | 69 | 0 | 8.0 | 13.0 | 0.00 | 0.00 | 0.00 | 53 | 1017.9 |
| 20260509093806 | 69 | 0 | 9.0 | 13.0 | 0.00 | 0.00 | 0.00 | 52 | 1017.9 |
| 20260509093303 | 69 | 0 | 9.0 | 13.0 | 0.00 | 0.00 | 0.00 | 52 | 1017.9 |
| 20260509092305 | 68 | 0 | 11.0 | 15.0 | 0.00 | 0.00 | 0.00 | 50 | 1017.9 |
| 20260509091305 | 68 | 0 | 9.0 | 14.0 | 0.00 | 0.00 | 0.00 | 53 | 1018.0 |
| 20260509090806 | 68 | 0 | 6.0 | 14.0 | 0.00 | 0.00 | 0.00 | 52 | 1018.0 |
| 20260509090302 | 68 | 0 | 8.0 | 14.0 | 0.00 | 0.00 | 0.00 | 53 | 1018.0 |
| 20260509085805 | 67 | 0 | 6.0 | 11.0 | 0.00 | 0.00 | 0.00 | 55 | 1018.0 |
| 20260509085306 | 67 | 0 | 6.0 | 12.0 | 0.00 | 0.00 | 0.00 | 53 | 1018.1 |
| 20260509084805 | 67 | 0 | 9.0 | 12.0 | 0.00 | 0.00 | 0.00 | 55 | 1018.0 |
| 20260509084303 | 67 | 0 | 6.0 | 11.0 | 0.00 | 0.00 | 0.00 | 54 | 1017.9 |
| 20260509083807 | 67 | 0 | 7.0 | 12.0 | 0.00 | 0.00 | 0.00 | 55 | 1018.0 |
| 20260509083301 | 67 | 0 | 6.0 | 13.0 | 0.00 | 0.00 | 0.00 | 55 | 1018.0 |
| 20260509082805 | 66 | 0 | 6.0 | 13.0 | 0.00 | 0.00 | 0.00 | 57 | 1018.0 |
| 20260509082307 | 66 | 0 | 8.0 | 13.0 | 0.00 | 0.00 | 0.00 | 54 | 1018.0 |
| 20260509081804 | 66 | 0 | 9.0 | 13.0 | 0.00 | 0.00 | 0.00 | 54 | 1018.1 |
| 20260509081302 | 66 | 0 | 8.0 | 12.0 | 0.00 | 0.00 | 0.00 | 56 | 1018.1 |
| 20260509080805 | 66 | 0 | 7.0 | 11.0 | 0.00 | 0.00 | 0.00 | 57 | 1018.1 |
| 20260509080301 | 66 | 0 | 5.0 | 12.0 | 0.00 | 0.00 | 0.00 | 57 | 1018.1 |
| 20260509075807 | 65 | 0 | 6.0 | 12.0 | 0.00 | 0.00 | 0.00 | 58 | 1018.2 |
| 20260509075301 | 65 | 8 | 5.0 | 11.0 | 0.00 | 0.00 | 0.00 | 60 | 1018.1 |
| 20260509074301 | 64 | 0 | 7.0 | 11.0 | 0.00 | 0.00 | 0.00 | 60 | 1018.1 |
| 20260509073302 | 63 | 0 | 4.0 | 10.0 | 0.00 | 0.00 | 0.00 | 63 | 1018.1 |
| 20260509072804 | 63 | 0 | 4.0 | 11.0 | 0.00 | 0.00 | 0.00 | 63 | 1018.1 |
| 20260509072300 | 63 | 0 | 5.0 | 11.0 | 0.00 | 0.00 | 0.00 | 62 | 1018.1 |
| 20260509071805 | 63 | 0 | 7.0 | 11.0 | 0.00 | 0.00 | 0.00 | 62 | 1018.2 |
| 20260509070805 | 62 | 0 | 5.0 | 9.0 | 0.00 | 0.00 | 0.00 | 65 | 1018.2 |
| 20260509070300 | 62 | 0 | 4.0 | 9.0 | 0.00 | 0.00 | 0.00 | 66 | 1018.1 |
| 20260509065803 | 61 | 0 | 4.0 | 9.0 | 0.00 | 0.00 | 0.00 | 66 | 1018.1 |
| 20260509065300 | 61 | 17 | 4.0 | 9.0 | 0.00 | 0.00 | 0.00 | 67 | 1018.2 |
| 20260509064804 | 61 | 0 | 5.0 | 9.0 | 0.00 | 0.00 | 0.00 | 68 | 1018.1 |
| 20260509064259 | 60 | 0 | 3.0 | 6.0 | 0.00 | 0.00 | 0.00 | 69 | 1018.0 |
| 20260509063803 | 60 | 11 | 4.0 | 6.0 | 0.00 | 0.00 | 0.00 | 69 | 1018.1 |
| 20260509063303 | 59 | 0 | 4.0 | 7.0 | 0.00 | 0.00 | 0.00 | 71 | 1018.1 |
| 20260509062258 | 58 | 0 | 4.0 | 7.0 | 0.00 | 0.00 | 0.00 | 72 | 1018.0 |
| 20260509061802 | 57 | 0 | 5.0 | 7.0 | 0.00 | 0.00 | 0.00 | 73 | 1018.1 |
| 20260509061259 | 57 | 0 | 3.0 | 7.0 | 0.00 | 0.00 | 0.00 | 73 | 1018.0 |
| 20260509060805 | 56 | 0 | 4.0 | 7.0 | 0.00 | 0.00 | 0.00 | 74 | 1018.1 |
| 20260509060258 | 56 | 0 | 4.0 | 7.0 | 0.00 | 0.00 | 0.00 | 75 | 1018.1 |